EW7356 Weather Reports


Display with metric or nautical units.
time (UTC)temp
F
wind
direction
speed
MPH
gust
MPH
rain 1hr
in
rain 24hr
in
rain mn
in
humidity
%
barometer
mb
20260901005030 64 0 0.0 1.0 0.00 0.00 0.00 77 1018.0
20260901004555 64 0 0.0 1.0 0.00 0.00 0.00 75 1018.2
20260901004029 64 0 0.0 1.0 0.00 0.00 0.00 74 1018.3
20260901003529 64 0 0.0 1.0 0.00 0.00 0.00 74 1018.2
20260901003054 64 0 0.0 1.0 0.00 0.00 0.00 73 1018.1
20260901002529 64 0 0.0 2.0 0.00 0.00 0.00 73 1018.1
20260901002031 64 0 0.0 2.0 0.00 0.00 0.00 73 1017.9
20260901001549 64 0 0.0 0.0 0.00 0.00 0.00 72 1018.0
20260901001028 65 0 0.0 0.0 0.00 0.00 0.00 71 1018.0
20260901000531 65 0 0.0 1.0 0.00 0.00 0.00 70 1017.9
20260901000048 66 0 0.0 1.0 0.00 0.00 0.00 68 1017.8
20260831235529 66 329 0.0 1.0 0.00 0.00 0.00 68 1018.0
20260831235034 67 0 0.0 1.0 0.00 0.00 0.00 67 1017.9
20260831234540 67 0 0.0 1.0 0.00 0.00 0.00 66 1018.0
20260831234028 68 0 0.0 1.0 0.00 0.00 0.00 65 1017.9
20260831233528 68 0 0.0 0.0 0.00 0.00 0.00 64 1017.9
20260831233048 69 0 0.0 1.0 0.00 0.00 0.00 63 1017.9
20260831232530 70 0 0.0 1.0 0.00 0.00 0.00 62 1017.9
20260831232029 70 0 0.0 1.0 0.00 0.00 0.00 60 1018.1
20260831231548 71 0 0.0 2.0 0.00 0.00 0.00 58 1018.0
20260831231030 71 0 0.0 3.0 0.00 0.00 0.00 56 1018.1
20260831230530 72 329 0.0 3.0 0.00 0.00 0.00 56 1018.1
20260831230051 72 329 0.0 3.0 0.00 0.00 0.00 56 1018.3
20260831225529 72 334 1.0 3.0 0.00 0.00 0.00 55 1018.4
20260831225032 73 293 1.0 4.0 0.00 0.00 0.00 55 1018.5
20260831224550 73 5 1.0 4.0 0.00 0.00 0.00 54 1018.3
20260831224033 73 294 1.0 3.0 0.00 0.00 0.00 54 1018.3
20260831223530 74 0 0.0 3.0 0.00 0.00 0.00 55 1018.1
20260831223048 74 0 0.0 5.0 0.00 0.00 0.00 55 1018.2
20260831222530 74 268 1.0 5.0 0.00 0.00 0.00 54 1018.2
20260831222031 74 272 1.0 8.0 0.00 0.00 0.00 53 1018.2
20260831221545 74 290 2.0 8.0 0.00 0.00 0.00 52 1018.2
20260831221030 74 267 2.0 6.0 0.00 0.00 0.00 52 1018.2
20260831220530 75 252 2.0 8.0 0.00 0.00 0.00 53 1018.2
20260831220043 75 238 3.0 8.0 0.00 0.00 0.00 53 1018.2
20260831215532 75 250 3.0 8.0 0.00 0.00 0.00 52 1018.3
20260831215030 75 242 2.0 7.0 0.00 0.00 0.00 54 1018.2
20260831214543 75 317 3.0 7.0 0.00 0.00 0.00 55 1018.2
20260831214029 75 276 2.0 5.0 0.00 0.00 0.00 55 1018.2
20260831213529 75 205 1.0 4.0 0.00 0.00 0.00 57 1018.2
20260831213046 74 228 1.0 3.0 0.00 0.00 0.00 59 1018.2
20260831212527 73 270 1.0 3.0 0.00 0.00 0.00 56 1018.1
20260831212028 74 350 0.0 4.0 0.00 0.00 0.00 57 1018.2
20260831211548 74 0 0.0 7.0 0.00 0.00 0.00 55 1018.1
20260831211031 75 347 1.0 8.0 0.00 0.00 0.00 54 1018.1
20260831210532 76 302 3.0 8.0 0.00 0.00 0.00 53 1018.1
20260831210043 76 5 2.0 6.0 0.00 0.00 0.00 53 1018.2
20260831205529 76 308 2.0 6.0 0.00 0.00 0.00 53 1018.2
20260831205030 75 275 1.0 8.0 0.00 0.00 0.00 56 1018.3
20260831204542 74 244 3.0 8.0 0.00 0.00 0.00 55 1018.3
20260831204030 75 200 3.0 9.0 0.00 0.00 0.00 52 1018.4
20260831203527 75 325 3.0 9.0 0.00 0.00 0.00 54 1018.4
20260831203054 75 229 3.0 8.0 0.00 0.00 0.00 54 1018.4
20260831202528 75 288 2.0 11.0 0.00 0.00 0.00 55 1018.3
20260831202028 75 254 3.0 11.0 0.00 0.00 0.00 52 1018.5
20260831201554 75 192 3.0 11.0 0.00 0.00 0.00 56 1018.5
20260831201029 75 234 4.0 11.0 0.00 0.00 0.00 52 1018.4
20260831200530 75 173 5.0 10.0 0.00 0.00 0.00 52 1018.4
20260831200045 74 259 3.0 9.0 0.00 0.00 0.00 52 1018.4
20260831195529 74 218 3.0 10.0 0.00 0.00 0.00 53 1018.5
20260831195029 73 241 3.0 10.0 0.00 0.00 0.00 54 1018.6
20260831194634 73 315 1.0 7.0 0.00 0.00 0.00 55 1018.7
20260831194031 73 278 2.0 8.0 0.00 0.00 0.00 55 1018.6
20260831193528 73 250 3.0 8.0 0.00 0.00 0.00 53 1018.6
20260831193046 73 280 1.0 8.0 0.00 0.00 0.00 52 1018.7
20260831192531 74 295 4.0 9.0 0.00 0.00 0.00 50 1018.7
20260831192031 75 253 2.0 9.0 0.00 0.00 0.00 47 1018.8
20260831191543 75 250 2.0 9.0 0.00 0.00 0.00 45 1018.8
20260831191033 75 279 2.0 8.0 0.00 0.00 0.00 45 1018.8
20260831190530 75 202 2.0 8.0 0.00 0.00 0.00 44 1018.8
20260831190047 75 202 2.0 8.0 0.00 0.00 0.00 45 1018.7
20260831185529 75 225 2.0 8.0 0.00 0.00 0.00 40 1018.8
20260831185029 75 269 2.0 9.0 0.00 0.00 0.00 40 1018.8
20260831184558 75 352 3.0 9.0 0.00 0.00 0.00 43 1019.0
20260831184031 74 179 2.0 8.0 0.00 0.00 0.00 44 1019.1
20260831183529 74 238 3.0 8.0 0.00 0.00 0.00 40 1019.1
20260831183048 74 271 2.0 7.0 0.00 0.00 0.00 40 1019.2
20260831182533 74 261 3.0 8.0 0.00 0.00 0.00 40 1019.2
20260831182028 75 232 3.0 8.0 0.00 0.00 0.00 44 1019.3
20260831181550 75 352 2.0 10.0 0.00 0.00 0.00 41 1019.3
20260831181029 74 322 3.0 10.0 0.00 0.00 0.00 41 1019.4
20260831180529 74 5 4.0 9.0 0.00 0.00 0.00 41 1019.5
20260831180044 74 246 3.0 9.0 0.00 0.00 0.00 45 1019.6
20260831175532 73 281 3.0 9.0 0.00 0.00 0.00 45 1019.4
20260831175029 74 271 3.0 9.0 0.00 0.00 0.00 50 1019.4
20260831174551 74 208 4.0 8.0 0.00 0.00 0.00 52 1019.3
20260831174033 73 285 3.0 8.0 0.00 0.00 0.00 52 1019.5
20260831173530 73 219 2.0 8.0 0.00 0.00 0.00 52 1019.7
20260831173041 73 226 4.0 8.0 0.00 0.00 0.00 50 1019.8
20260831172529 73 230 2.0 9.0 0.00 0.00 0.00 53 1019.8
20260831172032 73 241 3.0 9.0 0.00 0.00 0.00 55 1019.8
20260831171546 72 236 2.0 9.0 0.00 0.00 0.00 55 1019.9
20260831171028 72 266 5.0 9.0 0.00 0.00 0.00 52 1019.8
20260831170529 73 219 2.0 8.0 0.00 0.00 0.00 51 1019.8
20260831170052 72 0 2.0 8.0 0.00 0.00 0.00 49 1019.9
20260831165528 72 164 1.0 7.0 0.00 0.00 0.00 49 1020.1
20260831165029 72 0 2.0 10.0 0.00 0.00 0.00 46 1020.1
20260831164548 72 0 3.0 10.0 0.00 0.00 0.00 45 1020.1
20260831164029 72 239 3.0 10.0 0.00 0.00 0.00 44 1020.2
20260831163530 71 231 3.0 9.0 0.00 0.00 0.00 49 1020.2
20260831163044 70 204 4.0 14.0 0.00 0.00 0.00 48 1020.2
20260831162529 71 243 6.0 14.0 0.00 0.00 0.00 49 1020.2
20260831162031 71 277 4.0 9.0 0.00 0.00 0.00 51 1020.4
20260831161549 71 246 4.0 11.0 0.00 0.00 0.00 51 1020.3
20260831161029 71 216 5.0 11.0 0.00 0.00 0.00 50 1020.2
20260831160528 71 219 5.0 9.0 0.00 0.00 0.00 50 1020.2
20260831160042 72 250 2.0 9.0 0.00 0.00 0.00 49 1020.2
20260831155528 71 223 3.0 9.0 0.00 0.00 0.00 52 1020.3
20260831155029 71 331 2.0 8.0 0.00 0.00 0.00 54 1020.4
20260831154608 71 224 1.0 7.0 0.00 0.00 0.00 54 1020.2
20260831154026 70 0 1.0 7.0 0.00 0.00 0.00 49 1020.3
20260831153533 70 336 2.0 9.0 0.00 0.00 0.00 56 1020.3
20260831153048 70 0 1.0 9.0 0.00 0.00 0.00 55 1020.2
20260831152533 70 246 2.0 8.0 0.00 0.00 0.00 55 1020.2
20260831152032 70 221 2.0 5.0 0.00 0.00 0.00 54 1020.2
20260831151543 70 279 1.0 6.0 0.00 0.00 0.00 54 1020.3
20260831151030 70 313 1.0 9.0 0.00 0.00 0.00 56 1020.4
20260831150530 70 259 2.0 9.0 0.00 0.00 0.00 53 1020.5
20260831150042 69 343 3.0 9.0 0.00 0.00 0.00 54 1020.4
20260831145528 69 318 1.0 5.0 0.00 0.00 0.00 55 1020.4
20260831145028 69 62 1.0 9.0 0.00 0.00 0.00 56 1020.5
20260831144621 68 338 2.0 9.0 0.00 0.00 0.00 58 1020.5
20260831144028 68 80 2.0 7.0 0.00 0.00 0.00 56 1020.5
20260831143531 68 33 1.0 8.0 0.00 0.00 0.00 56 1020.6
20260831143043 68 0 1.0 8.0 0.00 0.00 0.00 58 1020.6
20260831142532 68 324 2.0 7.0 0.00 0.00 0.00 55 1020.6
20260831142030 68 248 2.0 6.0 0.00 0.00 0.00 60 1020.5
20260831141544 68 5 1.0 7.0 0.00 0.00 0.00 59 1020.5
20260831141029 67 268 1.0 9.0 0.00 0.00 0.00 58 1020.5
20260831140529 67 255 2.0 9.0 0.00 0.00 0.00 62 1020.5
20260831140040 66 280 2.0 5.0 0.00 0.00 0.00 62 1020.4
20260831135530 66 270 2.0 9.0 0.00 0.00 0.00 63 1020.4
20260831135032 66 289 3.0 9.0 0.00 0.00 0.00 61 1020.4
20260831134545 65 340 3.0 9.0 0.00 0.00 0.00 64 1020.2
20260831134029 65 352 2.0 7.0 0.00 0.00 0.00 65 1020.3
20260831133529 64 338 1.0 5.0 0.00 0.00 0.00 67 1020.3
20260831133052 64 54 2.0 5.0 0.00 0.00 0.00 69 1020.3
20260831132529 64 227 1.0 7.0 0.00 0.00 0.00 71 1020.3
20260831132032 63 259 1.0 10.0 0.00 0.00 0.00 71 1020.3
20260831131550 63 5 3.0 10.0 0.00 0.00 0.00 71 1020.4
20260831131031 63 336 1.0 8.0 0.00 0.00 0.00 74 1020.4
20260831130534 62 328 2.0 8.0 0.00 0.00 0.00 75 1020.4
20260831130045 62 36 1.0 7.0 0.00 0.00 0.00 75 1020.5
20260831125532 62 254 2.0 7.0 0.00 0.00 0.00 77 1020.5
20260831125031 61 216 2.0 4.0 0.00 0.00 0.00 78 1020.5
20260831124545 60 0 0.0 4.0 0.00 0.00 0.00 78 1020.6
20260831124030 59 246 2.0 5.0 0.00 0.00 0.00 81 1020.5
20260831123529 59 337 2.0 5.0 0.00 0.00 0.00 82 1020.5
20260831123054 58 59 1.0 4.0 0.00 0.00 0.00 85 1020.5
20260831122530 57 0 0.0 0.0 0.00 0.00 0.00 88 1020.4
20260831122029 57 0 0.0 0.0 0.00 0.00 0.00 91 1020.4
20260831121549 57 0 0.0 0.0 0.00 0.00 0.00 92 1020.4
20260831121033 56 0 0.0 2.0 0.00 0.00 0.00 93 1020.4
20260831120531 56 0 0.0 2.0 0.00 0.00 0.00 94 1020.5
20260831120044 56 0 0.0 2.0 0.00 0.00 0.00 94 1020.6
20260831115531 55 0 0.0 3.0 0.00 0.00 0.00 95 1020.5
20260831115033 55 0 0.0 3.0 0.00 0.00 0.00 95 1020.4
20260831114557 55 262 1.0 2.0 0.00 0.00 0.00 95 1020.4
20260831114032 54 292 1.0 2.0 0.00 0.00 0.00 95 1020.3
20260831113530 54 343 0.0 1.0 0.00 0.00 0.00 94 1020.3
20260831113057 54 0 0.0 0.0 0.00 0.00 0.00 94 1020.2
20260831112533 54 0 0.0 1.0 0.00 0.00 0.00 95 1020.2
20260831112030 54 0 0.0 1.0 0.00 0.00 0.00 94 1020.2
20260831111554 54 0 0.0 1.0 0.00 0.00 0.00 94 1020.1
20260831111031 54 0 0.0 1.0 0.00 0.00 0.00 94 1020.0
20260831110529 54 0 0.0 3.0 0.00 0.00 0.00 94 1020.0
20260831110045 54 0 0.0 3.0 0.00 0.00 0.00 95 1020.1
20260831105527 54 350 0.0 3.0 0.00 0.00 0.00 94 1020.2
20260831105030 54 0 0.0 1.0 0.00 0.00 0.00 94 1020.0
20260831104555 54 0 0.0 1.0 0.00 0.00 0.00 94 1020.0
20260831104027 54 0 0.0 3.0 0.00 0.00 0.00 94 1020.0
20260831103529 54 0 0.0 3.0 0.00 0.00 0.00 95 1020.0
20260831103051 54 0 0.0 5.0 0.00 0.00 0.00 95 1019.9
20260831102529 54 0 1.0 5.0 0.00 0.00 0.00 95 1019.8
20260831102027 54 289 0.0 2.0 0.00 0.00 0.00 94 1020.0
20260831101551 54 0 0.0 2.0 0.00 0.00 0.00 94 1019.9
20260831101028 54 323 0.0 2.0 0.00 0.00 0.00 94 1019.9
20260831100532 54 0 0.0 3.0 0.00 0.00 0.00 94 1019.9
20260831100111 54 0 0.0 3.0 0.00 0.00 0.00 94 1019.9
20260831095529 54 332 0.0 2.0 0.00 0.00 0.00 94 1019.8
20260831095029 54 0 0.0 1.0 0.00 0.00 0.00 94 1019.8
20260831094543 54 0 0.0 1.0 0.00 0.00 0.00 94 1019.8
20260831094030 54 0 0.0 2.0 0.00 0.00 0.00 94 1019.7
20260831093535 54 0 0.0 2.0 0.00 0.00 0.00 94 1019.7
20260831093051 54 0 0.0 2.0 0.00 0.00 0.00 94 1019.7
20260831092529 54 0 0.0 2.0 0.00 0.00 0.00 94 1019.7
20260831092026 54 0 0.0 2.0 0.00 0.00 0.00 94 1019.6
20260831091551 54 0 0.0 0.0 0.00 0.00 0.00 94 1019.7
20260831091030 54 0 0.0 0.0 0.00 0.00 0.00 93 1019.7
20260831090530 54 0 0.0 0.0 0.00 0.00 0.00 94 1019.7
20260831090041 54 0 0.0 0.0 0.00 0.00 0.00 94 1019.7
20260831085528 54 0 0.0 0.0 0.00 0.00 0.00 93 1019.4
20260831085031 54 0 0.0 0.0 0.00 0.00 0.00 93 1019.4
20260831084606 54 0 0.0 0.0 0.00 0.00 0.00 93 1019.4
20260831084029 54 0 0.0 0.0 0.00 0.00 0.00 92 1019.4
20260831083528 54 0 0.0 0.0 0.00 0.00 0.00 92 1019.4
20260831083041 55 0 0.0 2.0 0.00 0.00 0.00 92 1019.3
20260831082529 55 0 0.0 2.0 0.00 0.00 0.00 92 1019.3
20260831082029 55 0 0.0 2.0 0.00 0.00 0.00 92 1019.2
20260831081550 55 0 0.0 1.0 0.00 0.00 0.00 92 1019.2
20260831081027 55 0 0.0 1.0 0.00 0.00 0.00 92 1019.2
20260831080528 55 0 0.0 1.0 0.00 0.00 0.00 91 1019.1
20260831080046 55 0 0.0 1.0 0.00 0.00 0.00 91 1019.1
20260831075531 55 0 0.0 2.0 0.00 0.00 0.00 91 1019.2
20260831075032 56 0 0.0 2.0 0.00 0.00 0.00 90 1019.1
20260831074557 56 252 0.0 2.0 0.00 0.00 0.00 90 1019.0
20260831074030 56 0 0.0 2.0 0.00 0.00 0.00 90 1018.9
20260831073530 56 0 0.0 1.0 0.00 0.00 0.00 89 1018.8
20260831073050 56 0 0.0 3.0 0.00 0.00 0.00 89 1018.8
20260831072530 56 274 0.0 3.0 0.00 0.00 0.00 89 1018.6
20260831072032 56 0 0.0 3.0 0.00 0.00 0.00 88 1018.6
20260831071601 57 311 0.0 1.0 0.00 0.00 0.00 87 1018.6
20260831071029 57 0 0.0 1.0 0.00 0.00 0.00 86 1018.6
20260831070530 57 0 0.0 1.0 0.00 0.00 0.00 85 1018.7
20260831070045 58 0 0.0 1.0 0.00 0.00 0.00 85 1018.6
20260831065534 58 0 0.0 2.0 0.00 0.00 0.00 85 1018.6
20260831065031 58 0 0.0 2.0 0.00 0.00 0.00 85 1018.6
20260831064544 58 0 0.0 4.0 0.00 0.00 0.00 85 1018.6
20260831064029 58 267 0.0 4.0 0.00 0.00 0.00 84 1018.6
20260831063529 59 0 0.0 4.0 0.00 0.00 0.00 84 1018.5
20260831063042 59 0 0.0 2.0 0.00 0.00 0.00 83 1018.5
20260831062529 59 330 0.0 3.0 0.00 0.00 0.00 83 1018.4
20260831062032 59 0 0.0 3.0 0.00 0.00 0.00 82 1018.6
20260831061551 59 0 0.0 3.0 0.00 0.00 0.00 82 1018.6
20260831061029 59 338 0.0 3.0 0.00 0.00 0.00 82 1018.6
20260831060530 59 355 0.0 3.0 0.00 0.00 0.00 81 1018.5
20260831060058 59 311 0.0 5.0 0.00 0.00 0.00 81 1018.6
20260831055529 60 0 0.0 5.0 0.00 0.00 0.00 81 1018.6
20260831055029 60 315 1.0 4.0 0.00 0.00 0.00 81 1018.5
20260831054544 60 0 0.0 4.0 0.00 0.00 0.00 80 1018.5
20260831054033 60 0 1.0 6.0 0.00 0.00 0.00 80 1018.5
20260831053530 60 355 1.0 6.0 0.00 0.00 0.00 80 1018.6
20260831053104 60 0 1.0 7.0 0.00 0.00 0.00 80 1018.5
20260831052529 60 275 1.0 7.0 0.00 0.00 0.00 80 1018.6
20260831052029 61 322 1.0 7.0 0.00 0.00 0.00 80 1018.5
20260831051549 61 270 1.0 8.0 0.00 0.00 0.00 80 1018.5
20260831051029 61 308 1.0 8.0 0.00 0.00 0.00 80 1018.5
20260831050529 61 0 2.0 9.0 0.00 0.00 0.00 80 1018.4
20260831050105 61 0 2.0 9.0 0.00 0.00 0.00 81 1018.4
20260831045531 61 327 2.0 9.0 0.00 0.00 0.00 82 1018.4
20260831045032 61 0 0.0 5.0 0.00 0.00 0.00 83 1018.3
20260831044543 62 322 1.0 5.0 0.00 0.00 0.00 83 1018.2
20260831044030 62 260 1.0 4.0 0.00 0.00 0.00 84 1018.2
20260831043529 62 300 0.0 4.0 0.00 0.00 0.00 85 1018.2
20260831043055 62 0 0.0 4.0 0.00 0.00 0.00 86 1018.3
20260831042529 63 355 0.0 3.0 0.00 0.00 0.00 86 1018.3
20260831042034 63 0 1.0 3.0 0.00 0.00 0.00 87 1018.3
20260831041608 63 0 0.0 3.0 0.00 0.00 0.00 87 1018.3
20260831041033 63 0 0.0 4.0 0.00 0.00 0.00 87 1018.3
20260831040531 63 0 1.0 7.0 0.00 0.00 0.00 87 1018.3
20260831040043 63 313 1.0 7.0 0.00 0.00 0.00 87 1018.1
20260831035529 63 330 1.0 4.0 0.00 0.00 0.00 87 1018.3
20260831035028 63 15 2.0 4.0 0.00 0.00 0.00 87 1018.1
20260831034545 63 5 1.0 4.0 0.00 0.00 0.00 87 1018.1
20260831034029 63 340 1.0 4.0 0.00 0.00 0.00 86 1018.1
20260831033531 64 317 0.0 3.0 0.00 0.00 0.00 86 1018.0
20260831033109 64 0 0.0 3.0 0.00 0.00 0.00 86 1018.0
20260831032533 64 325 0.0 3.0 0.00 0.00 0.00 85 1018.0
20260831032028 64 341 0.0 3.0 0.00 0.00 0.00 85 1018.0
20260831031553 64 0 0.0 3.0 0.00 0.00 0.00 84 1018.0
20260831031028 64 0 0.0 3.0 0.00 0.00 0.00 85 1018.2
20260831030531 64 0 0.0 2.0 0.00 0.00 0.00 84 1018.1
20260831030047 64 266 0.0 2.0 0.00 0.00 0.00 84 1018.2
20260831025529 65 344 0.0 4.0 0.00 0.00 0.00 84 1018.2
20260831025029 65 0 0.0 4.0 0.00 0.00 0.00 83 1018.1
20260831024541 65 0 1.0 4.0 0.00 0.00 0.00 83 1018.1
20260831024030 65 265 1.0 4.0 0.00 0.00 0.00 83 1018.0
20260831023532 65 265 1.0 7.0 0.00 0.00 0.00 83 1018.1
20260831023053 65 0 1.0 7.0 0.00 0.00 0.00 83 1017.9
20260831022527 65 315 2.0 5.0 0.00 0.00 0.00 83 1018.0
20260831022030 65 0 1.0 5.0 0.00 0.00 0.00 83 1017.9
20260831021548 65 0 0.0 5.0 0.00 0.00 0.00 83 1017.8
20260831021029 65 317 0.0 5.0 0.00 0.00 0.00 83 1017.9
20260831020533 65 317 1.0 7.0 0.00 0.00 0.00 83 1017.8
20260831020044 65 321 2.0 7.0 0.00 0.00 0.00 83 1017.8
20260831015536 65 254 2.0 4.0 0.00 0.00 0.00 83 1017.8
20260831015032 65 253 1.0 4.0 0.00 0.00 0.00 83 1017.7
20260831014542 65 286 1.0 6.0 0.00 0.00 0.00 83 1017.6
20260831014029 65 259 2.0 6.0 0.00 0.00 0.00 83 1017.5
20260831013529 65 248 0.0 4.0 0.00 0.00 0.00 83 1017.5
20260831013056 65 268 1.0 6.0 0.00 0.00 0.00 82 1017.5
20260831012531 66 0 1.0 6.0 0.00 0.00 0.00 82 1017.4
20260831012031 66 293 1.0 8.0 0.00 0.00 0.00 82 1017.5
20260831011547 66 263 2.0 12.0 0.00 0.00 0.00 82 1017.4
20260831011029 66 259 2.0 12.0 0.00 0.00 0.00 81 1017.2
20260831010529 66 275 3.0 8.0 0.00 0.00 0.00 82 1017.1
20260831010058 66 266 3.0 13.0 0.00 0.00 0.00 82 1017.3
20260831005531 66 271 5.0 13.0 0.00 0.00 0.00 83 1017.2